Weather in Chaldonka

Russia / Zabaykalsky Krai     53°46′53″N   119°13′12″E
temp.,
°C
wind,
m/s
gust,
m/s
humid.,
%
clouds,
%
prec.,
mm/h
press.,
hPa
HPBL,
m
17 may, mon
mon1700:00+1nnw22765 0.0 100523
03:00−2wnw11708 0.0 100711
06:00−2w117035 0.0 100717
09:00+5sw133668 0.0 1004952
12:00+9wsw472898 0.0 10012639
15:00+10wsw4639100 0.1 9992022
18:00+9sw134351 0.1 997740
21:00+3ne228394 0.4 99917
18 may, tue
tue1800:00+2ne1289100 0.3 100148
03:000nnw239698 0.6 1002269
06:00−2nw25905 0.1 1004223
09:00+3nnw475125 0.1 10041715
12:00+6nw4718100 0.0 10033691
15:00+6w4722100 0.0 10022951
18:00+7w3826100 0.1 10012623
21:00+1e115512 0.2 100316
19 may, wed
wed1900:00−3w11695 0.0 100510
03:00−4wnw11662 0.0 100510
06:00−2wsw1153100 0.0 100544
09:00+4wsw2542100 0.1 10031621
12:00+7ssw2542100 0.2 10001704
15:00+10w4831100 0.4 9972408
18:00+11w581937 0.0 9962991
21:00+4sw003496 0.0 99810
20 may, thu
thu2000:00+1nne2257100 0.0 100120
03:00+2n2572100 0.0 1002130
06:000nnw2281100 0.0 100450
09:00+7n35245 0.0 10051455
12:00+10ne3321100 0.0 10051870
15:00+11e3123100 0.0 10042088
18:00+9se3331100 0.0 10061381
21:00+5se3852100 0.1 1008376
21 may, fri
fri2100:00+2ene1168100 0.0 101014
03:00+3e41165100 0.1 1008697
06:00+1e41296100 2.3 1006653
09:00+1e51287100 2.8 1003577
12:00+7e576798 0.0 1000952
15:00+12ene565647 0.0 9971089
18:00+9ne7136993 0.1 994665
21:00+3nne51098100 1.4 998487